Starlink 4133

operational
NORAD ID: 53253 Int'l Des: 2022-086 Owner: SPXS Country: US Constellation: starlink
LEOCIRCULAR

About Starlink 4133

Description loading...

Live Position

Loading 3D Globe...

Upcoming Passes

Altitude History

Altitude vs Time

uPlot chart will show altitude changes over time

Two-Line Element Set

1 53253U 22086M 25303.73556046 .00000084 00000-0 23379-4 0 9995
2 53253 53.2176 57.5048 0001484 95.6377 264.4785 15.08838685181443
Epoch: Oct 30, 2025 • Age: 11 hours

Current Status

Altitude 549.6 km
Velocity 7.59 km/s
Sub-Earth Point -30.38°S, 159.29°E
Launch Date Jul 24, 2022
Age 3.2 years
Type internet

Technical Details

Classification Payload
Mass 297.00 kg
Dry Mass 275.00 kg
Total Mass 297.00 kg
Length 0.20 m
Diameter 2.80 m
Span 9.00 m
Shape Box + pan
Manufacturer SPXS
Bus Type Starlink
Phase Status In Orbit
Owner/State SPXS/US

Large Constellations

Loading constellations...